• In Belarus
  • List of Countries
  • For 7 days
  • Water Temperature
  • Satellite Maps
  • Weather Map
  • Weather Widgets
  • user-avatar
    Login

    Hourly Weather Ghazni

    Today, 16 January, Wednesday

    Time Temperature Precipitation Wind Pressure Humidity
    00:00 +4°C° 0 mm 1 mps 583 mmHg 35%
    01:00 +4°C° 0 mm 1 mps 583 mmHg 37%
    02:00 +3°C° 0 mm 1 mps 583 mmHg 38%
    03:00 +3°C° 0 mm 1 mps 583 mmHg 40%
    04:00 +2°C° 0 mm 1 mps 582 mmHg 42%
    05:00 +2°C° 0 mm 1 mps 582 mmHg 44%
    06:00 +2°C° 0 mm 1 mps 582 mmHg 45%
    07:00 +2°C° 0 mm 1 mps 582 mmHg 47%
    08:00 +2°C° 0 mm 1 mps 583 mmHg 48%
    09:00 +3°C° 0 mm 1 mps 583 mmHg 45%
    10:00 +5°C° 0 mm 1 mps 584 mmHg 41%
    11:00 +7°C° 0 mm 1 mps 585 mmHg 38%
    12:00 +8°C° 0 mm 1 mps 585 mmHg 35%
    13:00 +8°C° 0 mm 2 mps 586 mmHg 32%
    14:00 +9°C° 0 mm 2 mps 586 mmHg 30%
    15:00 +9°C° 0 mm 2 mps 586 mmHg 30%
    16:00 +8°C° 0 mm 2 mps 585 mmHg 30%
    17:00 +8°C° 0 mm 1 mps 585 mmHg 31%
    18:00 +6°C° 0 mm 2 mps 585 mmHg 34%
    19:00 +4°C° 0 mm 2 mps 585 mmHg 38%
    20:00 +2°C° 0 mm 3 mps 585 mmHg 41%
    21:00 +1°C° 0 mm 3 mps 585 mmHg 40%
    22:00 +2°C° 0 mm 2 mps 585 mmHg 39%
    23:00 +1°C° 0 mm 2 mps 585 mmHg 37%

    Tomorrow, 17 January, Thursday

    Time Temperature Precipitation Wind Pressure Humidity
    00:00 +1°C° 0 mm 2 mps 585 mmHg 36%
    01:00 -1°C° 0 mm 2 mps 585 mmHg 34%
    02:00 -1°C° 0 mm 2 mps 585 mmHg 32%
    03:00 -1°C° 0 mm 2 mps 585 mmHg 32%
    04:00 -2°C° 0 mm 2 mps 585 mmHg 31%
    05:00 -2°C° 0 mm 2 mps 584 mmHg 31%
    06:00 -2°C° 0 mm 2 mps 585 mmHg 30%
    07:00 -2°C° 0 mm 2 mps 585 mmHg 30%
    08:00 -2°C° 0 mm 2 mps 585 mmHg 30%
    09:00 +1°C° 0 mm 1 mps 585 mmHg 28%
    10:00 +3°C° 0 mm 1 mps 586 mmHg 27%
    11:00 +5°C° 0 mm 1 mps 587 mmHg 25%
    12:00 +5°C° 0 mm 1 mps 586 mmHg 25%
    13:00 +6°C° 0 mm 1 mps 586 mmHg 25%
    14:00 +7°C° 0 mm 1 mps 585 mmHg 25%
    15:00 +7°C° 0 mm 1 mps 585 mmHg 28%
    16:00 +6°C° 0 mm 1 mps 585 mmHg 31%
    17:00 +6°C° 0 mm 1 mps 585 mmHg 33%
    18:00 +5°C° 0 mm 1 mps 584 mmHg 35%
    19:00 +4°C° 0 mm 1 mps 584 mmHg 37%
    20:00 +3°C° 0 mm 1 mps 584 mmHg 39%
    21:00 +2°C° 0 mm 2 mps 584 mmHg 40%
    22:00 +2°C° 0 mm 2 mps 584 mmHg 40%
    23:00 +2°C° 0 mm 2 mps 584 mmHg 40%

    Day after tomorrow, 18 January, Friday

    Time Temperature Precipitation Wind Pressure Humidity
    00:00 +3°C° 0 mm 1 mps 584 mmHg 42%
    01:00 +3°C° 0 mm 1 mps 584 mmHg 44%
    02:00 +2°C° 0 mm 1 mps 584 mmHg 45%
    03:00 +2°C° 0.2 mm 1 mps 584 mmHg 50%
    04:00 +1°C° 0.2 mm 2 mps 584 mmHg 55%
    05:00 +1°C° 0.2 mm 2 mps 583 mmHg 60%
    06:00 +1°C° 0.3 mm 2 mps 583 mmHg 67%
    07:00 +1°C° 0.3 mm 2 mps 584 mmHg 73%
    08:00 -1°C° 0.3 mm 2 mps 584 mmHg 80%
    09:00 +1°C° 0.4 mm 2 mps 584 mmHg 81%
    10:00 +1°C° 0.4 mm 2 mps 584 mmHg 81%
    11:00 +1°C° 0.4 mm 2 mps 584 mmHg 82%
    12:00 +2°C° 0.6 mm 2 mps 584 mmHg 83%
    13:00 +3°C° 0.6 mm 1 mps 583 mmHg 83%
    14:00 +3°C° 0.6 mm 1 mps 583 mmHg 84%
    15:00 +3°C° 0.2 mm 1 mps 583 mmHg 85%
    16:00 +2°C° 0.2 mm 2 mps 583 mmHg 86%
    17:00 +2°C° 0.2 mm 2 mps 583 mmHg 88%
    18:00 +2°C° 0.3 mm 2 mps 583 mmHg 89%
    19:00 +2°C° 0.3 mm 2 mps 584 mmHg 89%
    20:00 +3°C° 0.3 mm 1 mps 584 mmHg 90%
    21:00 +2°C° 0.3 mm 2 mps 584 mmHg 90%
    22:00 +2°C° 0.3 mm 2 mps 584 mmHg 89%
    23:00 +2°C° 0.3 mm 2 mps 584 mmHg 89%

    19 January, Saturday

    Time Temperature Precipitation Wind Pressure Humidity
    00:00 +1°C° 0.9 mm 2 mps 584 mmHg 90%
    01:00 +1°C° 0.9 mm 2 mps 584 mmHg 92%
    02:00 -1°C° 0.9 mm 2 mps 584 mmHg 93%
    03:00 -1°C° 1.2 mm 2 mps 584 mmHg 94%
    04:00 -1°C° 1.2 mm 2 mps 583 mmHg 95%
    05:00 -1°C° 1.2 mm 2 mps 583 mmHg 96%
    06:00 -1°C° 0.5 mm 2 mps 583 mmHg 95%
    07:00 -1°C° 0.5 mm 2 mps 584 mmHg 94%
    08:00 -1°C° 0.5 mm 2 mps 584 mmHg 93%
    09:00 -1°C° 0.1 mm 2 mps 584 mmHg 94%
    10:00 -1°C° 0.1 mm 2 mps 584 mmHg 95%
    11:00 +1°C° 0.1 mm 2 mps 584 mmHg 96%
    12:00 +1°C° 0.1 mm 2 mps 584 mmHg 96%
    13:00 +1°C° 0.1 mm 2 mps 583 mmHg 97%
    14:00 +2°C° 0.1 mm 2 mps 583 mmHg 97%
    15:00 +2°C° 0.4 mm 2 mps 582 mmHg 96%
    16:00 +2°C° 0.4 mm 2 mps 582 mmHg 96%
    17:00 +2°C° 0.4 mm 2 mps 582 mmHg 96%
    18:00 +1°C° 1.1 mm 2 mps 583 mmHg 95%
    19:00 +2°C° 1.1 mm 1 mps 583 mmHg 95%
    20:00 +2°C° 1.1 mm 1 mps 583 mmHg 94%
    21:00 +2°C° 0.4 mm 1 mps 583 mmHg 93%
    22:00 +2°C° 0.4 mm 1 mps 583 mmHg 92%
    23:00 +2°C° 0.4 mm 1 mps 583 mmHg 91%

    20 January, Sunday

    Time Temperature Precipitation Wind Pressure Humidity
    00:00 +1°C° 0.3 mm 1 mps 583 mmHg 91%
    01:00 +1°C° 0.3 mm 1 mps 582 mmHg 92%
    02:00 +1°C° 0.3 mm 1 mps 582 mmHg 92%
    03:00 -1°C° 0.8 mm 2 mps 582 mmHg 93%
    04:00 -2°C° 0.8 mm 2 mps 582 mmHg 94%
    05:00 -2°C° 0.8 mm 2 mps 581 mmHg 95%
    06:00 -2°C° 0.5 mm 2 mps 582 mmHg 95%
    07:00 -2°C° 0.5 mm 2 mps 582 mmHg 96%
    08:00 -2°C° 0.5 mm 2 mps 582 mmHg 96%
    09:00 -1°C° 1.1 mm 2 mps 582 mmHg 97%
    10:00 -1°C° 1.1 mm 2 mps 582 mmHg 97%
    11:00 -1°C° 1.1 mm 3 mps 582 mmHg 97%
    12:00 -1°C° 0.7 mm 3 mps 581 mmHg 98%
    13:00 -2°C° 0.7 mm 4 mps 580 mmHg 98%
    14:00 -1°C° 0.7 mm 4 mps 580 mmHg 98%
    15:00 -2°C° 0.3 mm 4 mps 580 mmHg 97%
    16:00 -2°C° 0.3 mm 4 mps 580 mmHg 95%
    17:00 -1°C° 0.3 mm 3 mps 579 mmHg 93%
    18:00 -2°C° 0 mm 3 mps 580 mmHg 94%
    19:00 -3°C° 0 mm 2 mps 580 mmHg 94%
    20:00 -2°C° 0 mm 1 mps 580 mmHg 95%
    21:00 -3°C° 0 mm 1 mps 580 mmHg 94%
    22:00 -3°C° 0 mm 1 mps 580 mmHg 94%
    23:00 -5°C° 0 mm 0 mps 580 mmHg 94%

    21 January, Monday

    Time Temperature Precipitation Wind Pressure Humidity
    00:00 -6°C° 0 mm 1 mps 580 mmHg 93%
    01:00 -6°C° 0 mm 1 mps 580 mmHg 92%
    02:00 -7°C° 0 mm 1 mps 580 mmHg 91%
    03:00 -7°C° 0 mm 1 mps 580 mmHg 89%
    04:00 -8°C° 0 mm 2 mps 579 mmHg 87%
    05:00 -9°C° 0 mm 2 mps 579 mmHg 86%
    06:00 -9°C° 0 mm 2 mps 580 mmHg 83%
    07:00 -9°C° 0 mm 2 mps 580 mmHg 81%
    08:00 -10°C° 0 mm 2 mps 580 mmHg 78%
    09:00 -8°C° 0 mm 2 mps 581 mmHg 76%
    10:00 -7°C° 0 mm 2 mps 581 mmHg 73%
    11:00 -3°C° 0 mm 1 mps 582 mmHg 71%
    12:00 -3°C° 0 mm 1 mps 581 mmHg 70%
    13:00 -2°C° 0 mm 1 mps 581 mmHg 70%
    14:00 -2°C° 0 mm 1 mps 580 mmHg 69%
    15:00 -3°C° 0 mm 1 mps 580 mmHg 71%
    16:00 -3°C° 0 mm 1 mps 579 mmHg 73%
    17:00 -4°C° 0 mm 1 mps 579 mmHg 74%
    18:00 -6°C° 0 mm 1 mps 579 mmHg 73%
    19:00 -8°C° 0 mm 2 mps 580 mmHg 72%
    20:00 -10°C° 0 mm 3 mps 580 mmHg 71%
    21:00 -10°C° 0 mm 3 mps 580 mmHg 70%
    22:00 -12°C° 0 mm 3 mps 580 mmHg 69%
    23:00 -12°C° 0 mm 3 mps 580 mmHg 68%
    Show more